Location: Fensholt
(55.9856°N, 10.0808°E)
Time: 19:34:11
(UTC+00:00)

ERS-2 - Pass Details

Date: 07 June 2020
Orbit: 493 x 499 km, 98.5° (Epoch: 04 July)

Event Time Altitude Azimuth Distance (km) Brightness Sun altitude
Rises 01:18:58 0° 137° (SE) 2,587 5.6 -7.2°
Reaches altitude 10° 01:21:09 10° 128° (SE) 1,708 4.7 -7.1°
Maximum altitude 01:24:29 34° 63° (ENE) 852 3.9 -6.8°
Drops below altitude 10° 01:27:50 10° 358° (N) 1,718 5.9 -6.6°
Sets 01:30:02 0° 349° (N) 2,606 6.6 -6.4°
